Weather History for Shreveport, LA

Change the Weather History Date:

Sunday, July 7, 2013

  Actual Average Record
Temperature  
Mean Temperature 84 °F 83 °F  
Max Temperature 94 °F 93 °F 104 °F (1998)
Min Temperature 73 °F 73 °F 58 °F (1972)
Degree Days  
Heating Degree Days 0 0  
Month to date heating degree days 0 0  
Since 1 June heating degree days 0 0  
Since 1 July heating degree days 0 0  
Cooling Degree Days 19 18  
Month to date cooling degree days 99 121  
Year to date cooling degree days 984 963  
Since 1 June cooling degree days 597 565  
Growing Degree Days 33 (Base 50)    
Moisture  
Dew Point 72 °F    
Average Humidity 71    
Maximum Humidity 93    
Minimum Humidity 49    
Precipitation  
Precipitation 0.00 in 0.13 in 3.46 in (1973)
Month to date precipitation 0.00 0.98  
Year to date precipitation 24.60 28.59  
Snow  
Snow 0.00 in - - ()
Month to date snowfall 0.0  
Since 1 June snowfall 0.0  
Since 1 July snowfall 0.0  
Snow Depth 0.00 in    
Sea Level Pressure  
Sea Level Pressure 29.99 in    
Wind  
Wind Speed 6 mph (SE)    
Max Wind Speed 23 mph    
Max Gust Speed 30 mph    
Visibility 10 miles    
Events      
T = Trace of Precipitation, MM = Missing Value Source: NWS Daily Summary

Daily Weather History Graph

Daily Weather History Graph

Search for Another Location

Airport:

Trip Planner

Search our weather history database for the weather conditions in past years. The results will help you decide how hot, cold, wet, or windy it might be!

Date:

Astronomy

Jul. 07, 2013 Rise Set
Actual Time 6:14 AM CDT 8:25 PM CDT
Civil Twilight 5:46 AM CDT 8:53 PM CDT
Nautical Twilight 5:12 AM CDT 9:28 PM CDT
Astronomical Twilight 4:34 AM CDT 10:05 PM CDT
Moon 5:47 AM CDT (7/7) 7:54 PM CDT (7/7)
Length of Visible Light 15h 07m
Length of Day
14h 11m
Waning Crescent, 0% of the Moon is Illuminated
Jul 7
Waning Crescent
Jul 8
New
Jul 15
First Quarter
Jul 22
Full
Jul 29
Last Quarter

Hourly Weather History & Observations

Time (CDT) Temp. Heat Index Dew Point Humidity Pressure Visibility Wind Dir Wind Speed Gust Speed Precip Events Conditions
12:56 AM 78.1 °F - 70.0 °F 76% 29.95 in 10.0 mi SE 4.6 mph - N/A   Partly Cloudy
1:56 AM 75.9 °F - 69.1 °F 79% 29.94 in 10.0 mi Calm Calm - N/A   Clear
2:56 AM 75.0 °F - 70.0 °F 84% 29.96 in 10.0 mi Calm Calm - N/A   Clear
3:56 AM 73.0 °F - 69.1 °F 87% 29.96 in 10.0 mi SE 4.6 mph - N/A   Clear
4:56 AM 73.9 °F - 71.1 °F 91% 29.96 in 10.0 mi SSE 6.9 mph - N/A   Clear
5:56 AM 73.9 °F - 71.1 °F 91% 29.98 in 10.0 mi Calm Calm - N/A   Clear
6:56 AM 73.9 °F - 71.1 °F 91% 29.99 in 10.0 mi SE 3.5 mph - N/A   Partly Cloudy
7:56 AM 77.0 °F - 73.0 °F 88% 30.00 in 10.0 mi SE 5.8 mph - N/A   Partly Cloudy
8:56 AM 81.0 °F 85.8 °F 73.0 °F 77% 30.02 in 10.0 mi SE 6.9 mph - N/A   Scattered Clouds
9:56 AM 82.9 °F 88.8 °F 73.0 °F 72% 30.02 in 10.0 mi SSE 9.2 mph - N/A   Scattered Clouds
10:19 AM 82.4 °F 88.2 °F 73.4 °F 74% 30.03 in 10.0 mi SSE 8.1 mph - N/A   Mostly Cloudy
10:27 AM 84.2 °F 90.9 °F 73.4 °F 70% 30.03 in 10.0 mi South 5.8 mph - N/A   Mostly Cloudy
10:56 AM 84.9 °F 90.7 °F 72.0 °F 65% 30.03 in 10.0 mi Variable 5.8 mph - N/A   Scattered Clouds
11:56 AM 88.0 °F 95.6 °F 73.0 °F 61% 30.01 in 10.0 mi Variable 4.6 mph - N/A   Scattered Clouds
12:56 PM 90.0 °F 97.9 °F 73.0 °F 57% 30.01 in 10.0 mi Variable 5.8 mph - N/A   Scattered Clouds
1:56 PM 91.9 °F 99.5 °F 72.0 °F 52% 29.99 in 10.0 mi SE 8.1 mph - N/A   Scattered Clouds
2:56 PM 91.0 °F 98.2 °F 72.0 °F 53% 29.98 in 10.0 mi SE 6.9 mph - N/A   Scattered Clouds
3:56 PM 91.9 °F 97.4 °F 70.0 °F 48% 29.96 in 10.0 mi ESE 8.1 mph - N/A   Scattered Clouds
4:56 PM 93.0 °F 100.1 °F 71.1 °F 49% 29.95 in 10.0 mi SE 9.2 mph - N/A   Mostly Cloudy
5:56 PM 89.1 °F 95.0 °F 71.1 °F 55% 29.95 in 10.0 mi SE 5.8 mph - N/A   Mostly Cloudy
6:40 PM 84.2 °F 89.6 °F 71.6 °F 66% 29.98 in 10.0 mi SSE 19.6 mph 25.3 mph N/A   Mostly Cloudy
6:56 PM 82.9 °F 89.4 °F 73.9 °F 74% 29.99 in 10.0 mi SSE 18.4 mph - N/A   Mostly Cloudy
7:56 PM 82.0 °F 87.9 °F 73.9 °F 76% 29.99 in 10.0 mi South 6.9 mph - N/A   Mostly Cloudy
8:56 PM 80.1 °F 84.5 °F 73.9 °F 81% 30.00 in 10.0 mi SSE 5.8 mph - N/A   Mostly Cloudy
9:56 PM 80.1 °F 85.1 °F 75.0 °F 85% 30.01 in 10.0 mi SE 5.8 mph - N/A   Mostly Cloudy
10:56 PM 78.1 °F - 73.9 °F 87% 30.02 in 10.0 mi ESE 4.6 mph - N/A   Mostly Cloudy
11:56 PM 77.0 °F - 73.9 °F 90% 30.02 in 10.0 mi SE 4.6 mph - N/A   Mostly Cloudy